SUSat (42730 NORAD) Tracking and Keplerian Element Data

This shows tracking and keplerian element data for the satellite.

Feedback or suggestion? Click here.




ElementValue
Catalog42730
NameSUSat
Epoch Orbit8913
Epoch Day350.82694672
Epoch Year2018
RAAN137.0099
Inclination51.6313
Eccentricity0.0003086
Argument of Perigee233.5038
Mean Anonmoly126.5681
Mean Motion15.83958865
Decay Rate0.00057044
L11 42730U 98067MK 18350.82694672 .00057044 00000-0 25118-3 0 9997
L22 42730 51.6313 137.0099 0003086 233.5038 126.5681 15.83958865 89135

Live tracking and technical data element details for SUSat (NORAD 42730). SUSat can be tracked NOW for your location showing map with azimuth and elevation plus other details from your city location.

Track the satellite on the map from your city or location and see movement details for azimuth, elevation, latitude, longitude, range, height, and movement on the map or in text.







IsCatalogInMostPopularTable: catalog: 42730, numindb: 156
Update: records affected: 1



GetName: 42730 SUSat

Hit Count: updated at: Wed, 19 Dec 2018 15:13:33 GMT